Location: Cactus School
(34.5700°N, 118.0931°W)
Time: 09:12:23
(UTC-07:00)

Vanguard 1 Rocket - Pass Details

Date: 18 April 2024
Orbit: 650 x 4220 km, 34.3° (Epoch: 22 May)

Event Time Altitude Azimuth Distance (km) Brightness Sun altitude
Rises 21:03:55 0° 266° (W) 3,294 11.2 -19.2°
Reaches altitude 10° 21:05:54 10° 266° (W) 2,544 10.5 -19.6°
Maximum altitude 21:11:49 89° 177° (S) 1,250 8.0 -20.6°
Enters shadow 21:18:38 24° 89° (E) 3,124 9.6 -21.8°
